Station CECC1 - 9419750 - Crescent City, CA Image indicating link to RSS feed of recent meteorological observations for station CECC1


Conditions at CECC1 as of
(10:18 pm PDT on 05/19/2024)
0518 GMT on 05/20/2024:
     

Click on the graph icon in the table below to see a time series plot of the last five days of that observation.

5-day plot - Atmospheric Pressure Atmospheric Pressure (PRES):30.13 in
5-day plot - Water Temperature Water Temperature (WTMP): 49.1 °F
NOS Water Level Observation Network Water Level
Previous observations
TIME
(PDT)
5-day plot - Wind Direction
WDIR
 
5-day plot - Wind Speed
WSPD
kts
5-day plot - Wind Gust
GST
kts
5-day plot - Wave Height
WVHT
ft
5-day plot - Dominant Wave Period
DPD
sec
5-day plot - Average Wave Period
APD
sec
5-day plot - Mean Wave Direction
MWD
 
5-day plot - Atmospheric Pressure
PRES
in
5-day plot - Pressure Tendency
PTDY
in
5-day plot - Air Temperature
ATMP
°F
5-day plot - Water Temperature
WTMP
°F
5-day plot - Dew Point
DEWP
°F
5-day plot - Salinity
SAL
psu
5-day plot - Visibility
VIS
nmi
5-day plot - Tide (above MLLW)
TIDE
ft
2024-05-19 10:12 pm-------30.13-- 48.9----
2024-05-19 10:06 pm-------30.13-- 49.1----
2024-05-19 10:00 pm N 14.0 20.0----30.13+0.03 52.3 49.1----
2024-05-19 09:54 pm N 15.0 21.0----30.12- 52.3 49.1----
2024-05-19 09:48 pm N 14.0 19.0----30.12- 52.3 49.1----
2024-05-19 09:42 pm N 17.1 21.0----30.12- 52.2 49.1----
2024-05-19 09:36 pm N 15.0 21.0----30.11- 52.2 49.3----
2024-05-19 09:30 pm N 17.1 22.0----30.11- 52.2 49.3----
2024-05-19 09:24 pm N 13.0 15.9----30.11- 52.3 49.3----
2024-05-19 09:18 pm N 13.0 18.1----30.11- 52.3 49.3----
2024-05-19 09:12 pm N 11.1 15.9----30.11- 52.3 49.3----
2024-05-19 09:06 pm N 14.0 19.0----30.11- 52.3 49.3----
2024-05-19 09:00 pm N 14.0 19.0----30.11+0.00 52.3 49.3----
2024-05-19 08:54 pm N 13.0 18.1----30.10- 52.5 49.5----
2024-05-19 08:48 pm N 11.1 19.0----30.10- 52.9 49.5----
2024-05-19 08:42 pm N 11.1 18.1----30.10- 52.9 49.5----
2024-05-19 08:36 pm N 12.0 18.1----30.10- 52.9 49.6----
2024-05-19 08:30 pm N 13.0 19.0----30.10- 52.5 49.6----
2024-05-19 08:24 pm N 14.0 19.0----30.10- 52.3 49.6----
2024-05-19 08:18 pm N 12.0 17.1----30.11-- 49.8----
2024-05-19 08:12 pm N 11.1 17.1----30.11-- 49.8----
2024-05-19 08:06 pm N 13.0 19.0----30.10-- 50.0----
2024-05-19 08:00 pm N 11.1 15.9----30.10-0.01 53.1 50.2----
2024-05-19 07:54 pm N 12.0 20.0----30.10- 53.1 50.2----
2024-05-19 07:48 pm N 12.0 18.1----30.10- 53.1 50.4----
2024-05-19 07:42 pm N 14.0 21.0----30.10- 53.1 50.4----
2024-05-19 07:36 pm N 12.0 18.1----30.10- 53.4 50.5----
2024-05-19 07:30 pm N 9.9 19.0----30.10- 53.6 50.5----
2024-05-19 07:24 pm N 13.0 19.0----30.10- 53.6 50.5----
2024-05-19 07:18 pm N 12.0 17.1----30.10- 54.0 50.5----
2024-05-19 07:12 pm N 11.1 17.1----30.10- 54.1 50.7----
2024-05-19 07:06 pm N 12.0 17.1----30.10- 54.9 50.5----
2024-05-19 07:00 pm N 12.0 17.1----30.10- 55.0 50.5----
2024-05-19 06:54 pm N 12.0 17.1----30.10- 54.9 50.5----
2024-05-19 06:48 pm N 12.0 21.0----30.10-- 50.7----
2024-05-19 06:42 pm N 12.0 19.0----30.10- 54.3 50.7----
2024-05-19 06:36 pm N 12.0 22.0----30.10- 54.5 50.9----
2024-05-19 06:30 pm N 13.0 19.0----30.10-- 51.1----
2024-05-19 06:24 pm N 14.0 21.0----30.11-- 51.6----
2024-05-19 06:18 pm N 15.9 22.0----30.11-- 52.0----
2024-05-19 06:12 pm N 18.1 22.9----30.11-- 52.3----
2024-05-19 06:06 pm N 14.0 21.0----30.11-- 52.9----
2024-05-19 06:00 pm N 13.0 24.1----30.11-0.04- 52.9----
2024-05-19 05:54 pm N 15.0 20.0----30.11-- 53.1----
2024-05-19 05:48 pm N 15.9 22.9----30.11- 54.7 53.4----
2024-05-19 05:42 pm N 19.0 26.0----30.11- 54.7 53.4----
2024-05-19 05:36 pm N 13.0 19.0----30.11- 55.0 53.4----
2024-05-19 05:30 pm N 14.0 19.0----30.11- 54.9 53.4----
2024-05-19 05:24 pm N 15.0 27.0----30.11- 54.7 53.6----
2024-05-19 05:18 pm---------- 53.4----
2024-05-19 05:12 pm---------- 53.4----
2024-05-19 05:06 pm---------- 53.4----
2024-05-19 05:00 pm N 17.1 22.9----30.12-0.04- 53.4----
2024-05-19 04:54 pm N 15.9 25.1----30.12-- 53.4----
2024-05-19 04:48 pm N 14.0 22.0------------
2024-05-19 04:42 pm N 15.0 22.0------------
2024-05-19 04:36 pmNNW 20.0 31.1------------
2024-05-19 04:30 pm N 15.9 28.0----30.12- 54.9 53.2----
2024-05-19 04:24 pm N 13.0 22.0----30.12- 55.0 53.2----
2024-05-19 04:18 pmNNW 13.0 22.9----30.13- 55.2 53.2----
2024-05-19 04:12 pmNNW 18.1 28.0----30.13- 54.7 53.2----
2024-05-19 04:06 pmNNW 19.0 31.1----30.13- 54.5 53.2----
2024-05-19 04:00 pm N 20.0 27.0------- 53.2----
2024-05-19 03:54 pm N 15.9 34.0------- 53.1----
2024-05-19 03:48 pmNNW 22.9 32.1----30.13-- 53.1----
2024-05-19 03:42 pmNNW 20.0 29.9----30.14-- 53.1----
2024-05-19 03:36 pmNNW 20.0 29.9----30.14-- 53.1----
2024-05-19 03:30 pm N 20.0 28.9----30.14-- 52.9----
2024-05-19 03:24 pm N 21.0 33.0----30.14-- 52.9----
2024-05-19 03:18 pm-------30.14- 54.9 52.9----
2024-05-19 03:12 pm-------30.14- 54.9 52.7----
2024-05-19 03:06 pm-------30.14- 54.9 52.5----
2024-05-19 03:00 pmNNW 19.0 28.9----30.14-0.03 55.0 52.5----
2024-05-19 02:54 pmNNW 21.0 31.1----30.15- 54.5 52.3----
2024-05-19 02:48 pmNNW 20.0 28.9----30.14-- 52.2----
2024-05-19 02:42 pmNNW 18.1 29.9----30.15- 54.7 52.3----
2024-05-19 02:36 pmNNW 19.0 29.9----30.15- 54.5 52.2----
2024-05-19 02:30 pmNNW 19.0 33.0----30.15- 54.7 52.0----
2024-05-19 02:24 pmNNW 22.9 35.0----30.15- 54.5 52.3----
2024-05-19 02:18 pmNNW 22.0 31.1----30.15-- 52.3----
2024-05-19 02:12 pm N 20.0 29.9----30.15- 54.9 52.2----
2024-05-19 02:06 pmNNW 20.0 28.0----30.15- 54.7 52.3----
2024-05-19 02:00 pmNNW 22.9 34.0----30.16-0.02 54.7 52.3----
2024-05-19 01:54 pmNNW 15.9 28.0----30.16- 55.0 52.3----
2024-05-19 01:48 pmNNW 20.0 28.9----30.16- 54.7 52.0----
2024-05-19 01:42 pmNNW 18.1 28.9----30.16- 54.5 51.8----
2024-05-19 01:36 pmNNW 19.0 29.9----30.16- 54.5 51.6----
2024-05-19 01:30 pmNNW 21.0 28.0----30.16- 54.3 51.8----
2024-05-19 01:24 pmNNW 20.0 32.1----30.16- 55.0 51.8----
2024-05-19 01:18 pmNNW 17.1 28.9----30.16- 55.2 51.6----
2024-05-19 01:12 pmNNW 18.1 25.1----30.16- 55.0 51.4----
2024-05-19 01:06 pmNNW 22.0 28.0----30.17- 54.7 51.3----
2024-05-19 01:00 pmNNW 19.0 28.9----30.16-0.02- 51.1----
2024-05-19 12:54 pmNNW 21.0 29.9----30.16-- 50.7----
2024-05-19 12:48 pmNNW 22.0 28.9----30.17-- 50.7----
2024-05-19 12:42 pmNNW 19.0 26.0----30.17-- 50.7----
2024-05-19 12:36 pmNNW 20.0 26.0----30.17-- 50.7----
2024-05-19 12:30 pmNNW 20.0 28.9----30.17- 54.9 50.5----
2024-05-19 12:24 pmNNW 18.1 27.0----30.17- 55.2 50.4----
2024-05-19 12:18 pmNNW 15.9 26.0----30.17- 55.2 50.4----
2024-05-19 12:12 pmNNW 18.1 28.0----30.17- 55.0 50.2----
2024-05-19 12:06 pmNNW 15.9 25.1----30.17- 55.2 50.2----
2024-05-19 12:00 pmNNW 17.1 27.0----30.17-0.02- 49.8----
2024-05-19 11:54 amNNW 15.9 25.1----30.17-- 49.8----
2024-05-19 11:48 amNNW 17.1 26.0----30.17-- 49.6----
2024-05-19 11:42 amNNW 15.0 24.1----30.17- 55.0 49.6----
2024-05-19 11:36 amNNW 15.0 22.9----30.17- 55.0 49.5----
2024-05-19 11:30 amNNW 17.1 22.9----30.17- 54.7 49.5----
2024-05-19 11:24 amNNW 17.1 26.0----30.17- 54.5 49.5----
2024-05-19 11:18 amNNW 19.0 25.1----30.17- 54.5 49.3----
2024-05-19 11:12 amNNW 15.0 22.9----30.18- 54.9 49.3----
2024-05-19 11:06 amNNW 15.9 22.9----30.17- 54.5 49.3----
2024-05-19 11:00 amNNW 15.0 20.0----30.18+0.00 54.7 49.5----
2024-05-19 10:54 amNNW 14.0 18.1----30.18- 54.5 49.3----
2024-05-19 10:48 amNNW 15.9 24.1----30.18- 54.1 49.3----
2024-05-19 10:42 amNNW 17.1 22.0----30.18- 54.1 49.3----
2024-05-19 10:36 amNNW 15.9 21.0----30.18- 54.1 49.3----
2024-05-19 10:30 amNNW 14.0 21.0----30.18- 54.0 49.1----
2024-05-19 10:24 amNNW 14.0 20.0----30.18- 53.8 48.9----
2024-05-19 10:18 amNNW 15.0 19.0----30.18-- 48.9----
2024-05-19 10:12 am N 12.0 17.1----30.18-- 48.9----
2024-05-19 10:06 amNNW 15.0 19.0----30.19-- 48.9----
2024-05-19 10:00 amNNW 11.1 15.9----30.19+0.00- 48.9----
2024-05-19 09:54 amNNW 11.1 15.0----30.19-- 48.9----
2024-05-19 09:48 am N 9.9 13.0----30.19- 54.1 48.9----
2024-05-19 09:42 am N 11.1 15.0----30.19- 54.0 48.9----
2024-05-19 09:36 am N 11.1 15.9----30.19- 53.6 48.9----
2024-05-19 09:30 amNNW 9.9 14.0----30.19- 53.4 49.1----
2024-05-19 09:24 am N 9.9 14.0----30.19- 53.2 48.9----
2024-05-19 09:18 am N 11.1 15.9----30.19- 52.9 48.9----
2024-05-19 09:12 am N 7.0 12.0----30.19- 52.9 48.9----
2024-05-19 09:06 am N 2.9 8.0----30.19- 52.9 48.9----
2024-05-19 09:00 amNNE 5.1 11.1----30.19+0.04 52.7 48.9----
2024-05-19 08:54 am N 7.0 9.9----30.19- 52.0 48.9----
2024-05-19 08:48 amNNE 2.9 7.0----30.19- 50.0 49.1----
2024-05-19 08:42 amWSW 1.0 2.9----30.19- 48.9 49.1----
2024-05-19 08:36 am SW 1.9 2.9----30.19- 48.6 48.9----
2024-05-19 08:30 am SW 1.9 2.9----30.19- 48.2 48.9----
2024-05-19 08:24 amSSW 1.9 1.9----30.19- 48.0 48.9----
2024-05-19 08:18 am-------30.19- 47.7 48.9----
2024-05-19 08:12 am-------30.18- 47.7 48.9----
2024-05-19 08:06 am-------30.18- 47.7 49.1----
2024-05-19 08:00 am-------30.18+0.03 47.8 49.1----
2024-05-19 07:54 am-------30.18- 47.8 49.1----
2024-05-19 07:48 am-------30.18- 47.5 49.1----
2024-05-19 07:42 am-------30.18- 46.8 49.3----
2024-05-19 07:36 am-------30.18- 47.1 49.3----
2024-05-19 07:30 am- 0.0 1.0----30.18- 46.6 49.5----
2024-05-19 07:24 am E 1.0 1.0----30.18- 45.9 49.5----
2024-05-19 07:18 am- 0.0 1.0----30.18- 44.8 49.8----
2024-05-19 07:12 am- 0.0 1.9----30.18- 44.6 50.0----
2024-05-19 07:06 amNNE 1.0 1.9----30.18- 43.2 49.8----
2024-05-19 07:00 am N 1.9 2.9----30.18+0.04- 50.0----
2024-05-19 06:54 am N 1.9 1.9----30.18-- 50.2----
2024-05-19 06:48 am-------30.18- 42.6 50.2----
2024-05-19 06:42 am-------30.18- 42.4 50.2----
2024-05-19 06:36 am-------30.17- 42.1 50.5----
2024-05-19 06:30 am- 0.0 1.9----30.17-- 50.5----
2024-05-19 06:24 amNNE 1.9 2.9----30.17-- 50.5----
2024-05-19 06:18 am N 2.9 2.9----30.17-- 50.5----
2024-05-19 06:12 am N 2.9 2.9----30.16-- 50.7----
2024-05-19 06:06 am N 1.9 2.9----30.16-- 50.7----
2024-05-19 06:00 am N 1.0 1.9----30.16+0.03- 50.7----
2024-05-19 05:54 am- 0.0 1.0----30.15-- 50.7----
2024-05-19 05:48 am- 0.0 1.9----30.15- 41.7 50.9----
2024-05-19 05:42 am N 1.0 1.9----30.15- 41.9 50.9----
2024-05-19 05:36 am- 0.0 1.9----30.15- 42.6 50.7----
2024-05-19 05:30 am-------30.15- 43.2-----
2024-05-19 05:24 am-------30.15- 43.5-----
2024-05-19 05:18 amNNE 1.0 2.9----30.15-- 50.9----
2024-05-19 05:12 am NE 1.9 2.9----30.15-- 50.9----
2024-05-19 05:06 am NE 2.9 2.9----30.15-- 50.9----
2024-05-19 05:00 am NE 1.0 2.9----30.15+0.02 43.0 50.9----
2024-05-19 04:54 am NE 1.0 1.9----30.15- 42.8 50.9----
2024-05-19 04:48 amNNE 1.9 1.9----30.15- 43.0 51.1----
2024-05-19 04:42 amNNE 1.0 1.9----30.15- 43.0 51.3----
2024-05-19 04:36 am N 1.9 1.9----30.15- 43.3 51.1----
2024-05-19 04:30 amNNE 1.0 1.9----30.15- 43.3 51.1----
2024-05-19 04:24 am NE 1.9 2.9----30.15- 43.7 51.3----
2024-05-19 04:18 amNNE 1.0 1.9----30.15- 43.3 51.4----
2024-05-19 04:12 am NE 1.0 1.9----30.14- 43.2 51.4----
2024-05-19 04:06 amNNE 1.0 1.9----30.14- 43.0 51.4----
2024-05-19 04:00 am N 1.0 1.9----30.14+0.03------
2024-05-19 03:54 am N 1.0 1.9----30.14-------
2024-05-19 03:48 am N 1.0 1.9----30.14-- 51.8----
2024-05-19 03:42 am N 1.9 1.9----30.14-- 52.0----
2024-05-19 03:36 am N 1.9 1.9----30.14-- 52.0----
2024-05-19 03:30 am N 1.0 1.9----30.14- 43.5 52.2----
2024-05-19 03:24 am N 1.0 1.9----30.14- 44.1 52.5----
2024-05-19 03:18 am- 0.0 1.9----30.14-- 51.6----
2024-05-19 03:12 amNNE 1.0 1.9----30.13-- 51.8----
2024-05-19 03:06 amNNE 1.0 1.9----30.13-- 52.0----
2024-05-19 03:00 am-------30.13+0.03------
2024-05-19 02:54 am-------30.13-------
2024-05-19 02:48 am- 0.0 1.9----30.13- 44.2 52.0----
2024-05-19 02:42 amNNE 1.9 2.9----30.13- 44.2 52.0----
2024-05-19 02:36 amNNE 1.9 1.9----30.13- 44.6 51.6----
2024-05-19 02:30 am N 1.9 2.9----30.13- 45.1 51.6----
2024-05-19 02:24 amNNE 1.9 1.9----30.13- 45.1 51.8----
2024-05-19 02:18 am NE 1.9 2.9----30.13-------
2024-05-19 02:12 am E 2.9 2.9----30.12- 47.1 52.0----
2024-05-19 02:06 amENE 2.9 2.9----30.12- 46.9 52.3----
2024-05-19 02:00 am NE 2.9 2.9----30.13+0.03 45.9 52.0----
2024-05-19 01:54 am NE 1.9 1.9----30.12- 46.2 51.8----
2024-05-19 01:48 am NE 1.0 1.9----30.12-- 52.0----
2024-05-19 01:42 amNNE 1.9 1.9----30.12- 46.2 52.0----
2024-05-19 01:36 amNNE 1.0 1.9----30.12- 46.6 52.0----
2024-05-19 01:30 am- 0.0 1.9----30.12- 47.3 52.0----
2024-05-19 01:24 am N 1.0 1.9----30.12- 47.1 52.0----
2024-05-19 01:18 amNNE 1.9 1.9----30.11-- 52.3----
2024-05-19 01:12 am NE 1.0 1.9----30.11- 47.7 52.0----
2024-05-19 01:06 amNNE 1.0 1.9----30.11- 47.8 52.2----
2024-05-19 01:00 am- 0.0 1.9----30.11+0.03 48.7 52.2----
2024-05-19 12:54 am- 0.0 2.9----30.11- 48.9 52.0----
2024-05-19 12:48 am S 1.9 1.9----30.11-------
2024-05-19 12:42 am S 1.9 4.1----30.11- 48.9 51.6----
2024-05-19 12:36 amSSE 4.1 4.1----30.10- 49.1 52.0----
2024-05-19 12:30 amSSE 2.9 5.1----30.10- 49.1 51.8----
2024-05-19 12:24 amSSE 1.9 2.9----30.10- 49.1 51.6----
2024-05-19 12:18 amSSE 1.9 1.9----30.10- 48.9 51.4----
2024-05-19 12:12 am SE 1.0 1.9----30.10- 48.9 51.4----
2024-05-19 12:06 am- 0.0 1.0----30.10- 48.7 51.4----
2024-05-19 12:00 am E 1.0 2.9----30.10+0.04 48.6 51.6----
2024-05-18 11:54 pmENE 1.0 1.9----30.10- 48.4 51.4----
2024-05-18 11:48 pm- 0.0 0.0----30.10- 48.4 51.4----
2024-05-18 11:42 pm- 0.0 0.0----30.10- 48.4 51.4----
2024-05-18 11:36 pm- 0.0 1.0----30.10- 48.4 51.1----
2024-05-18 11:30 pm E 1.9 4.1----30.10- 48.4 51.4----
2024-05-18 11:24 pmENE 1.9 5.1----30.10- 48.6 51.4----
2024-05-18 11:18 pm NE 2.9 4.1----30.10- 48.4 51.4----
2024-05-18 11:12 pmENE 1.9 5.1----30.10- 48.4 51.3----
2024-05-18 11:06 pmNNE 5.1 6.0----30.10- 48.6 51.4----
2024-05-18 11:00 pm N 5.1 6.0----30.10+0.04 48.7 51.4----
2024-05-18 10:54 pm N 2.9 6.0----30.10- 48.9 51.4----